sat.trackr.live / text

‹ back to catalog

UNKNOWN

NORAD 81674

UNKNOWN UNKNOWN UNKNOWN

§ Identity

Operator
Country
Launch date
Launch site
Launch vehicle
Mass (kg)
RCS (m²)

External: N2YO · Heavens-Above

§ Orbital elements

Epoch: 2026-09-18T08:04:09.575616Z

Period
102.09 min
Inclination
66.8240°
Eccentricity
0.0023104
Mean motion
14.10482771 rev/d
Perigee alt
841.0 km
Apogee alt
874.4 km
Semi-major
7,235.9 km
B*
2.2046e-4
RAAN
19.8548°
Arg perigee
7.8910°
Mean anomaly
23.5147°
Rev number
65,314

§ Raw data

UNKNOWN1 81674U          26261.33622194  .00000313  00000+0  22046-3 0  99962 81674  66.8240  19.8548 0023104   7.8910  23.5147 14.10482771653140

JSON: /api/v1/satellites/81674 · /tle

For live sub-satellite position, see the globe view (requires WebGL).

§ Visibility from observer

Set your observer location to see the next 7 days of passes ≥ 10°. The values pass through the URL so the page stays shareable.

No JS? Fill the form by hand. The geolocation button needs JavaScript.